Time,TemperatureF,DewpointF,PressureIn,WindDirection,WindDirectionDegrees,WindSpeedMPH,WindSpeedGustMPH,Humidity,HourlyPrecipIn,Conditions,Clouds,dailyrainin,SoftwareType,DateUTC
2013-09-02 00:13:00,68.0,67.0,29.83,WSW,240,0.0,0.0,96,0.00,,,0.08,,2013-09-02 05:13:00,
2013-09-02 00:23:00,68.0,67.0,29.84,WSW,240,0.0,1.0,96,0.00,,,0.08,,2013-09-02 05:23:00,
2013-09-02 00:43:00,68.0,67.0,29.83,WSW,240,0.0,1.0,96,0.00,,,0.08,,2013-09-02 05:43:00,
2013-09-02 00:52:00,68.0,67.0,29.84,WSW,240,0.0,1.0,96,0.00,,,0.08,,2013-09-02 05:52:00,
2013-09-02 01:12:00,68.0,67.0,29.84,WSW,240,0.0,1.0,96,0.00,,,0.04,,2013-09-02 06:12:00,
2013-09-02 01:22:00,68.0,67.0,29.83,WSW,240,0.0,2.0,96,0.00,,,0.04,,2013-09-02 06:22:00,
2013-09-02 01:43:00,68.0,67.0,29.83,WSW,240,0.0,0.0,96,0.00,,,0.04,,2013-09-02 06:43:00,
2013-09-02 01:52:00,68.0,67.0,29.83,WSW,240,0.0,1.0,96,0.00,,,0.04,,2013-09-02 06:52:00,
2013-09-02 02:11:00,68.0,67.0,29.83,WSW,240,0.0,0.0,96,0.00,,,0.03,,2013-09-02 07:11:00,
2013-09-02 02:21:00,67.0,66.0,29.82,WSW,240,0.0,0.0,96,0.00,,,0.03,,2013-09-02 07:21:00,
2013-09-02 02:42:00,67.0,66.0,29.82,WSW,240,0.0,0.0,97,0.00,,,0.03,,2013-09-02 07:42:00,
2013-09-02 02:52:00,67.0,66.0,29.82,WSW,240,0.0,0.0,96,0.00,,,0.03,,2013-09-02 07:52:00,
2013-09-02 03:11:00,67.0,66.0,29.82,WSW,240,0.0,0.0,97,0.00,,,0.02,,2013-09-02 08:11:00,
2013-09-02 03:22:00,67.0,66.0,29.82,WSW,240,0.0,0.0,97,0.00,,,0.02,,2013-09-02 08:22:00,
2013-09-02 03:52:00,67.0,66.0,29.82,WSW,240,0.0,0.0,97,0.00,,,0.02,,2013-09-02 08:52:00,
2013-09-02 04:12:00,67.0,66.0,29.82,WSW,240,0.0,0.0,97,0.00,,,0.02,,2013-09-02 09:12:00,
2013-09-02 04:22:00,67.0,66.0,29.82,WSW,240,0.0,0.0,97,0.00,,,0.02,,2013-09-02 09:22:00,
2013-09-02 04:43:00,67.0,66.0,29.83,WSW,240,0.0,0.0,97,0.00,,,0.02,,2013-09-02 09:43:00,
2013-09-02 04:53:00,67.0,66.0,29.83,WSW,240,0.0,0.0,97,0.00,,,0.02,,2013-09-02 09:53:00,
2013-09-02 05:13:00,66.0,65.0,29.83,WSW,240,0.0,0.0,97,0.00,,,0.02,,2013-09-02 10:13:00,
2013-09-02 05:22:00,66.0,65.0,29.83,WSW,240,0.0,0.0,97,0.00,,,0.02,,2013-09-02 10:22:00,
2013-09-02 05:42:00,66.0,65.0,29.83,WSW,240,0.0,0.0,97,0.00,,,0.02,,2013-09-02 10:42:00,
2013-09-02 05:53:00,66.0,65.0,29.84,WSW,240,0.0,0.0,97,0.00,,,0.02,,2013-09-02 10:53:00,
2013-09-02 06:11:00,66.0,65.0,29.84,WSW,240,0.0,0.0,97,0.00,,,0.01,,2013-09-02 11:11:00,
2013-09-02 06:22:00,66.0,65.0,29.85,WSW,240,0.0,0.0,97,0.00,,,0.01,,2013-09-02 11:22:00,
2013-09-02 06:42:00,65.0,64.0,29.85,WSW,240,0.0,0.0,97,0.00,,,0.01,,2013-09-02 11:42:00,
2013-09-02 06:52:00,65.0,64.0,29.85,WSW,240,0.0,0.0,97,0.00,,,0.01,,2013-09-02 11:52:00,
2013-09-02 07:12:00,66.0,65.0,29.86,WSW,240,0.0,0.0,97,0.00,,,0.01,,2013-09-02 12:12:00,
2013-09-02 07:21:00,66.0,65.0,29.87,WSW,240,0.0,0.0,98,0.00,,,0.01,,2013-09-02 12:21:00,
2013-09-02 07:43:00,68.0,67.0,29.87,West,267,1.0,3.0,98,0.00,,,0.01,,2013-09-02 12:43:00,
2013-09-02 07:52:00,68.0,67.0,29.87,NW,323,1.0,5.0,98,0.00,,,0.01,,2013-09-02 12:52:00,
2013-09-02 08:11:00,70.0,69.0,29.88,NW,321,0.0,2.0,98,0.00,,,0.00,,2013-09-02 13:11:00,
2013-09-02 08:22:00,70.0,69.0,29.88,NNW,346,3.0,5.0,98,0.00,,,0.00,,2013-09-02 13:22:00,
2013-09-02 08:42:00,70.0,69.0,29.88,NNW,343,2.0,6.0,97,0.00,,,0.00,,2013-09-02 13:42:00,
2013-09-02 08:52:00,71.0,69.0,29.88,NNW,348,4.0,7.0,95,0.00,,,0.00,,2013-09-02 13:52:00,
2013-09-02 09:11:00,72.0,69.0,29.88,NNW,339,4.0,6.0,91,0.00,,,0.00,,2013-09-02 14:11:00,
2013-09-02 09:22:00,74.0,70.0,29.88,NNW,346,2.0,7.0,88,0.00,,,0.00,,2013-09-02 14:22:00,
2013-09-02 09:43:00,75.0,71.0,29.88,NNE,25,1.0,5.0,86,0.00,,,0.00,,2013-09-02 14:43:00,
2013-09-02 09:52:00,76.0,71.0,29.89,NW,304,0.0,4.0,84,0.00,,,0.00,,2013-09-02 14:52:00,
2013-09-02 10:12:00,77.0,71.0,29.89,North,9,1.0,6.0,81,0.00,,,0.00,,2013-09-02 15:12:00,
2013-09-02 10:23:00,77.0,71.0,29.89,WSW,249,1.0,6.0,81,0.00,,,0.00,,2013-09-02 15:23:00,
2013-09-02 10:55:00,79.0,73.0,29.90,NNW,341,3.0,8.0,81,0.00,,,0.00,,2013-09-02 15:55:00,
2013-09-02 11:14:00,79.0,72.0,29.90,NNW,339,3.0,8.0,78,0.00,,,0.00,,2013-09-02 16:14:00,
2013-09-02 11:24:00,80.0,72.0,29.91,NW,319,2.0,8.0,76,0.00,,,0.00,,2013-09-02 16:24:00,
2013-09-02 11:42:00,80.0,72.0,29.91,NNW,346,6.0,8.0,76,0.00,,,0.00,,2013-09-02 16:42:00,
2013-09-02 11:53:00,80.0,71.0,29.91,NW,318,2.0,10.0,74,0.00,,,0.00,,2013-09-02 16:53:00,
2013-09-02 12:12:00,80.0,69.0,29.91,West,260,2.0,7.0,70,0.00,,,0.00,,2013-09-02 17:12:00,
2013-09-02 12:23:00,81.0,70.0,29.91,NNW,333,6.0,9.0,70,0.00,,,0.00,,2013-09-02 17:23:00,
2013-09-02 12:44:00,81.0,69.0,29.91,NW,309,3.0,10.0,68,0.00,,,0.00,,2013-09-02 17:44:00,
2013-09-02 12:52:00,82.0,69.0,29.91,NW,321,2.0,9.0,66,0.00,,,0.00,,2013-09-02 17:52:00,
2013-09-02 13:13:00,82.0,69.0,29.90,NNW,345,5.0,9.0,66,0.00,,,0.00,,2013-09-02 18:13:00,
2013-09-02 13:22:00,82.0,69.0,29.90,North,350,6.0,11.0,65,0.00,,,0.00,,2013-09-02 18:22:00,
2013-09-02 13:52:00,82.0,69.0,29.89,NNW,337,6.0,12.0,65,0.00,,,0.00,,2013-09-02 18:52:00,
2013-09-02 14:12:00,83.0,68.0,29.88,NNW,334,2.0,11.0,60,0.00,,,0.00,,2013-09-02 19:12:00,
2013-09-02 14:22:00,84.0,68.0,29.88,NNW,331,2.0,9.0,59,0.00,,,0.00,,2013-09-02 19:22:00,
2013-09-02 14:52:00,84.0,67.0,29.88,North,355,6.0,11.0,56,0.00,,,0.00,,2013-09-02 19:52:00,
2013-09-02 15:12:00,83.0,67.0,29.88,NNW,333,5.0,10.0,59,0.00,,,0.00,,2013-09-02 20:12:00,
2013-09-02 15:22:00,84.0,67.0,29.87,NW,310,4.0,9.0,57,0.00,,,0.00,,2013-09-02 20:22:00,
2013-09-02 15:52:00,84.0,68.0,29.87,NW,317,4.0,10.0,58,0.00,,,0.00,,2013-09-02 20:52:00,
2013-09-02 16:12:00,84.0,67.0,29.87,North,355,5.0,10.0,56,0.00,,,0.00,,2013-09-02 21:12:00,
2013-09-02 16:23:00,84.0,67.0,29.86,NW,313,4.0,10.0,56,0.00,,,0.00,,2013-09-02 21:23:00,
2013-09-02 16:55:00,84.0,68.0,29.86,North,355,7.0,9.0,58,0.00,,,0.00,,2013-09-02 21:55:00,
2013-09-02 17:13:00,83.0,67.0,29.86,NW,325,5.0,8.0,58,0.00,,,0.00,,2013-09-02 22:13:00,
2013-09-02 17:24:00,83.0,67.0,29.86,NNW,333,4.0,10.0,58,0.00,,,0.00,,2013-09-02 22:24:00,
2013-09-02 17:54:00,82.0,67.0,29.86,NNE,19,7.0,11.0,60,0.00,,,0.00,,2013-09-02 22:54:00,
2013-09-02 18:12:00,82.0,67.0,29.85,NNW,333,6.0,11.0,61,0.00,,,0.00,,2013-09-02 23:12:00,
2013-09-02 18:22:00,81.0,67.0,29.86,NNW,344,4.0,9.0,62,0.00,,,0.00,,2013-09-02 23:22:00,
2013-09-02 18:52:00,79.0,66.0,29.86,NNW,336,5.0,7.0,65,0.00,,,0.00,,2013-09-02 23:52:00,
2013-09-02 19:12:00,78.0,66.0,29.86,NNW,340,4.0,7.0,66,0.00,,,0.00,,2013-09-03 00:12:00,
2013-09-02 19:21:00,77.0,66.0,29.87,NNW,340,0.0,5.0,69,0.00,,,0.00,,2013-09-03 00:21:00,
2013-09-02 19:42:00,76.0,66.0,29.88,NNW,340,0.0,2.0,72,0.00,,,0.00,,2013-09-03 00:42:00,
2013-09-02 19:52:00,76.0,66.0,29.88,NNW,340,0.0,2.0,72,0.00,,,0.00,,2013-09-03 00:52:00,
2013-09-02 20:11:00,75.0,66.0,29.88,NNW,340,0.0,0.0,74,0.00,,,0.00,,2013-09-03 01:11:00,
2013-09-02 20:21:00,74.0,66.0,29.89,NNW,340,0.0,1.0,76,0.00,,,0.00,,2013-09-03 01:21:00,
2013-09-02 20:42:00,73.0,66.0,29.89,NNW,340,0.0,0.0,79,0.00,,,0.00,,2013-09-03 01:42:00,
2013-09-02 20:52:00,72.0,67.0,29.90,NNW,340,0.0,0.0,83,0.00,,,0.00,,2013-09-03 01:52:00,
2013-09-02 21:12:00,70.0,65.0,29.90,NNW,340,0.0,0.0,84,0.00,,,0.00,,2013-09-03 02:12:00,
2013-09-02 21:21:00,69.0,65.0,29.91,NNW,340,0.0,1.0,86,0.00,,,0.00,,2013-09-03 02:21:00,
2013-09-02 21:42:00,69.0,64.0,29.91,NNW,340,1.0,2.0,85,0.00,,,0.00,,2013-09-03 02:42:00,
2013-09-02 21:52:00,70.0,65.0,29.91,NNW,340,2.0,4.0,83,0.00,,,0.00,,2013-09-03 02:52:00,
2013-09-02 22:11:00,70.0,65.0,29.91,NNW,338,0.0,2.0,83,0.00,,,0.00,,2013-09-03 03:11:00,
2013-09-02 22:23:00,69.0,64.0,29.91,NNW,338,1.0,2.0,85,0.00,,,0.00,,2013-09-03 03:23:00,
2013-09-02 22:45:00,69.0,64.0,29.92,NNW,344,0.0,3.0,85,0.00,,,0.00,,2013-09-03 03:45:00,
2013-09-02 22:55:00,69.0,64.0,29.92,NNW,335,1.0,4.0,84,0.00,,,0.00,,2013-09-03 03:55:00,
2013-09-02 23:14:00,68.0,63.0,29.92,NNW,338,1.0,6.0,85,0.00,,,0.00,,2013-09-03 04:14:00,
2013-09-02 23:25:00,68.0,64.0,29.92,NNW,329,0.0,1.0,86,0.00,,,0.00,,2013-09-03 04:25:00,
2013-09-02 23:44:00,67.0,63.0,29.92,NNW,329,0.0,1.0,87,0.00,,,0.00,,2013-09-03 04:44:00,
2013-09-02 23:53:00,66.0,63.0,29.92,NNW,329,0.0,0.0,89,0.00,,,0.00,,2013-09-03 04:53:00,